STARLINK-1855 (47142 NORAD) Tracking and Keplerian Element Data

This shows tracking and keplerian element data for the satellite.

Feedback or suggestion? Click here.




ElementValue
Catalog47142
NameSTARLINK-1855
Epoch Orbit180
Epoch Day20.91667824
Epoch Year2021
RAAN83.3072
Inclination53.0569
Eccentricity0.0001527
Argument of Perigee59.926
Mean Anonmoly49.9589
Mean Motion15.06387965
Decay Rate-6.099E-05
L11 47142U 20088W 21020.91667824 -.00006099 00000-0 -39099-3 0 9993
L22 47142 53.0569 83.3072 0001527 59.9260 49.9589 15.06387965 1800

Live tracking and technical data element details for STARLINK-1855 (NORAD 47142). STARLINK-1855 can be tracked NOW for your location showing map with azimuth and elevation plus other details from your city location.

Track the satellite on the map from your city or location and see movement details for azimuth, elevation, latitude, longitude, range, height, and movement on the map or in text.







IsCatalogInMostPopularTable: catalog: 47142, numindb: 20
Update: records affected: 1



GetName: 47142 STARLINK-1855

Hit Count: updated at: Fri, 22 Jan 2021 15:13:58 GMT